Wind_Speed
4 4 5 6 7 6 2 10 19 22 25 28 29 30 31 31 32 32 32 32 31 30 30 30 29 28 28 28 27 26 24 22 21 21 22 20 19 20 22 22 21 19 19 18 18 18 16 14 13 13 13 13 13 12 12 11 11 11 12 12 12 12 13
4 5 5 6 6 6 11 5 11 19 22 26 28 30 31 31 33 33 33 33 33 31 30 30 30 29 28 28 27 27 27 23 20 21 23 22 20 21 22 23 22 21 20 19 18 17 15 14 14 13 13 14 13 12 12 12 12 12 12 13 13 13 13
5 6 6 5 5 1 7 10 1 10 16 22 26 27 30 33 35 35 34 34 34 32 31 31 31 30 29 28 27 27 28 24 20 21 23 23 22 21 22 22 22 22 21 19 18 18 16 15 15 14 13 15 15 13 13 13 13 13 12 13 13 13 13
6 7 7 5 4 4 3 5 5 9 12 17 21 23 29 35 37 37 37 36 35 33 32 31 31 30 30 29 28 28 28 26 22 21 22 23 22 22 22 22 21 21 22 21 20 19 18 17 17 16 16 17 17 15 15 16 15 14 14 14 13 13 13
8 8 6 5 4 2 1 3 5 9 14 16 17 17 23 30 33 35 36 36 36 35 35 34 32 31 30 29 29 28 28 27 24 22 22 22 21 21 22 22 22 21 22 21 21 20 20 20 19 19 19 20 19 18 17 17 17 16 16 16 15 15 15
9 8 6 4 4 4 5 5 4 6 9 14 16 15 18 24 25 28 32 33 32 31 30 30 29 30 30 29 28 27 26 27 25 24 23 22 22 22 22 22 22 22 22 21 21 21 21 21 20 20 21 21 20 19 19 18 18 17 17 17 16 16 16
8 7 7 5 5 6 7 7 6 7 10 12 15 16 17 21 23 23 26 27 28 27 27 27 26 27 28 28 27 26 25 26 26 25 24 24 23 23 23 22 22 23 22 21 21 21 22 22 21 21 21 21 20 20 20 18 17 17 17 18 17 16 15
8 7 7 7 7 7 7 9 11 12 12 11 12 15 16 19 21 23 24 26 28 29 30 30 28 26 26 26 27 27 26 25 26 25 25 25 25 24 24 23 23 22 23 23 22 22 22 23 23 22 22 22 22 20 20 19 18 16 17 18 18 16 15
9 7 8 9 8 8 9 12 15 16 14 13 13 14 14 15 17 18 17 18 22 28 30 30 28 26 25 26 26 26 26 25 25 26 26 26 26 26 25 24 24 23 23 24 23 23 23 23 23 23 23 23 23 21 20 20 19 18 18 18 18 17 17
9 9 8 8 8 9 11 12 15 15 13 11 12 12 13 13 13 13 12 10 11 18 24 27 27 23 22 25 26 25 25 25 25 26 26 26 26 26 26 26 25 25 24 24 24 24 24 24 23 23 24 25 24 22 21 21 20 19 19 19 19 19 18
8 9 8 8 8 9 11 12 11 13 14 12 12 12 13 13 12 12 12 11 10 12 15 20 23 22 19 21 23 24 24 23 23 23 23 25 26 26 26 26 26 27 27 26 26 25 25 26 25 23 25 27 25 23 23 23 23 22 21 21 20 19 19
7 8 9 9 8 8 10 10 11 12 15 16 16 15 14 13 13 13 12 12 12 11 11 13 16 20 19 19 19 21 22 21 20 21 21 20 21 24 26 26 25 26 29 28 27 27 26 27 27 26 25 27 26 25 23 23 23 24 23 23 22 21 20
10 9 9 9 9 8 8 9 10 12 16 18 19 19 18 16 15 15 16 14 15 14 11 10 10 13 16 17 18 18 20 20 19 21 22 19 16 16 20 24 25 25 28 30 29 28 28 27 28 27 27 27 27 26 25 23 23 24 24 24 24 23 22
12 11 10 9 9 9 9 9 10 13 16 18 19 19 19 20 17 16 17 15 13 13 13 10 8 7 9 12 15 15 17 20 20 19 20 20 19 16 13 16 22 24 25 29 31 30 30 29 29 29 29 29 29 28 27 25 24 25 25 25 25 25 25
12 12 11 10 9 8 8 8 10 14 16 16 18 18 17 19 18 15 15 16 14 12 10 9 9 7 6 8 10 10 12 15 17 17 17 18 19 18 13 11 15 19 21 24 28 31 31 30 30 30 31 31 31 31 29 28 28 27 27 26 26 26 27
12 11 11 10 9 8 7 8 11 16 18 18 18 18 16 17 17 15 13 13 14 13 11 9 9 8 7 7 7 7 7 8 10 12 15 16 16 17 18 16 17 19 19 19 21 25 29 30 29 30 31 33 33 33 32 32 31 29 28 28 28 28 28
12 11 10 9 9 8 8 10 13 17 18 18 18 18 18 18 18 18 15 13 12 14 14 14 13 13 14 13 11 11 10 9 8 8 10 14 16 16 19 22 25 25 21 18 16 17 21 25 28 29 29 31 33 35 35 34 34 32 31 30 30 30 30
11 11 10 8 7 8 8 10 12 15 16 17 18 19 19 18 18 18 18 16 15 15 16 17 16 15 15 14 12 12 13 12 11 10 8 8 12 15 18 22 25 24 21 19 17 16 16 19 25 29 29 28 29 32 35 36 35 34 33 32 31 31 31
11 10 9 7 6 7 7 9 12 15 15 16 19 20 20 20 19 18 18 18 17 18 18 18 17 16 15 13 12 11 11 11 12 11 9 8 7 9 13 17 17 16 14 14 15 16 17 17 20 25 29 29 28 29 32 35 36 36 34 33 32 32 32
10 10 8 7 6 7 9 11 14 17 18 17 18 20 21 22 21 19 19 19 18 18 17 16 16 17 15 14 13 13 12 11 10 10 9 8 7 5 4 6 7 7 8 9 11 13 15 17 18 21 24 25 25 25 27 31 35 36 36 35 33 32 32
10 10 8 6 6 8 11 13 15 19 20 19 18 19 20 20 20 19 19 19 19 19 18 17 17 16 15 15 15 15 14 13 11 9 9 9 8 7 6 4 2 1 3 6 8 10 12 13 16 18 19 19 18 18 19 24 29 33 35 36 35 33 33
9 9 9 8 8 11 14 16 18 20 22 21 20 20 19 18 17 17 16 16 17 18 18 18 19 18 16 16 15 15 15 15 13 10 9 9 10 10 9 9 9 7 4 4 6 8 10 11 12 14 16 16 16 16 16 18 20 24 29 33 34 34 34
11 11 12 14 16 18 19 20 22 23 23 22 21 19 17 15 14 15 16 15 15 15 16 17 18 18 17 16 15 15 14 14 15 13 12 11 11 12 12 11 11 11 9 7 6 7 9 10 11 11 12 13 14 17 19 19 17 16 18 23 29 33 35
15 15 16 19 22 22 22 22 23 23 22 22 20 18 16 14 13 15 16 15 15 15 14 15 15 15 16 16 15 15 13 13 14 14 14 14 12 12 13 14 13 12 10 9 8 8 8 9 10 10 11 11 13 15 19 20 17 14 14 16 21 27 32
16 19 20 22 23 22 21 21 21 22 21 20 19 16 14 13 13 14 15 15 15 16 16 16 14 13 14 13 13 14 13 13 15 14 13 15 14 11 14 16 14 11 10 10 10 9 9 10 11 11 10 10 12 14 17 17 15 15 16 17 17 20 23
17 20 21 22 21 20 19 19 20 21 20 19 17 15 13 13 13 15 16 14 14 16 18 17 15 14 14 11 9 13 14 14 16 15 14 15 13 11 14 16 13 12 12 11 11 11 11 12 13 13 12 11 11 13 15 15 15 15 16 16 17 17 18
20 21 21 21 19 18 18 17 18 18 18 17 15 14 13 12 13 16 15 14 15 17 17 17 15 14 15 12 8 10 14 16 17 16 15 14 13 12 15 16 15 15 15 13 12 12 12 13 13 13 13 12 12 14 15 15 15 15 15 15 15 15 16
21 21 21 20 18 16 16 15 15 15 16 15 15 14 13 12 13 15 15 14 16 16 15 15 15 14 14 13 10 10 12 15 17 17 15 14 15 15 16 17 17 17 16 14 13 13 14 15 16 15 14 13 12 13 14 14 14 14 15 15 15 15 16
19 19 19 18 17 14 14 14 14 14 14 14 13 13 13 12 12 13 14 14 15 14 13 14 15 14 14 14 13 12 12 13 16 17 16 15 16 16 15 15 16 15 14 15 17 17 17 18 18 18 18 16 15 14 13 13 13 13 14 15 14 14 14
19 19 18 16 15 13 13 13 13 13 13 13 13 13 13 13 13 13 15 15 15 14 13 14 14 14 14 15 15 15 14 13 14 16 16 16 17 16 14 14 14 13 14 16 18 19 19 18 19 20 20 19 19 17 15 14 13 13 13 13 13 13 13
18 18 16 14 13 12 12 12 12 12 11 11 12 12 13 14 15 16 17 17 15 15 16 15 14 13 14 15 16 16 15 14 13 13 14 17 17 15 14 14 14 14 15 16 17 18 18 18 18 19 20 20 20 21 20 18 16 16 15 14 12 12 13
17 16 15 13 12 11 10 10 9 8 9 11 12 12 13 14 16 17 18 16 16 16 17 16 16 15 15 15 16 16 15 15 14 13 14 15 15 13 13 14 15 16 17 17 18 17 16 16 18 19 19 19 21 22 22 21 19 18 17 15 14 13 12
15 15 15 14 13 11 10 8 7 7 9 12 12 12 13 14 15 16 16 16 16 17 16 16 16 17 16 15 15 16 16 16 16 16 15 13 12 12 13 15 17 18 18 18 19 19 17 17 17 18 18 20 21 22 23 23 22 20 19 18 17 16 16
16 17 16 15 13 10 8 7 7 9 10 11 11 12 13 14 14 14 14 15 17 18 17 17 17 17 16 15 15 15 16 17 18 18 16 14 12 13 15 17 17 17 17 18 19 20 20 20 19 18 19 20 22 23 24 24 23 23 22 20 19 19 19
18 18 17 14 11 8 8 9 10 11 11 10 10 11 12 12 12 13 13 15 17 18 18 18 18 17 16 15 15 15 16 17 17 18 18 17 16 15 16 15 14 14 17 18 16 17 19 20 19 20 21 22 23 23 23 25 26 24 21 19 18 19 20
19 18 16 12 9 9 10 12 11 11 10 9 9 10 10 9 11 12 12 14 17 18 19 19 19 18 17 17 17 16 17 17 18 18 19 19 18 18 17 13 11 13 17 18 16 15 16 17 17 19 21 23 24 23 23 25 25 23 19 18 17 18 19
20 17 14 12 11 12 14 12 11 10 10 8 8 8 8 9 11 12 12 13 15 17 18 19 19 19 19 18 17 16 16 17 18 19 20 19 19 19 16 13 13 14 14 14 15 16 16 16 17 18 20 22 25 25 23 22 21 20 21 21 20 19 18
20 16 13 13 14 15 14 12 10 9 8 8 8 8 8 9 10 11 12 14 15 15 16 18 18 19 19 19 18 17 17 18 18 19 19 19 19 18 15 13 13 13 11 11 12 14 17 19 20 21 22 21 21 22 23 20 19 21 22 21 20 19 19
Wind_Direction
115 73 52 35 16 353 288 179 172 170 172 175 176 176 176 178 180 182 184 187 188 189 192 196 198 199 199 202 204 199 197 201 207 209 205 204 208 207 204 205 207 211 212 214 217 219 219 217 219 221 216 213 211 211 215 216 219 221 218 221 232 234 226
100 86 73 65 51 357 335 313 179 172 175 178 177 176 176 177 180 182 184 187 189 190 193 196 198 200 200 203 205 202 200 205 212 212 206 204 205 205 204 206 210 213 214 214 215 216 219 220 219 216 213 214 217 221 223 221 221 222 223 232 238 232 231
82 87 88 81 96 114 324 330 63 150 166 179 180 177 177 179 181 184 185 187 189 191 193 196 198 200 202 203 204 202 202 207 213 213 209 206 204 204 205 208 212 214 214 214 214 214 217 220 218 213 212 218 224 228 227 223 223 225 229 235 234 229 229
105 97 100 105 118 158 256 320 28 87 127 164 177 180 182 182 184 186 187 188 189 190 192 196 198 200 202 203 203 202 203 207 212 213 211 209 208 207 207 209 211 213 214 215 215 216 218 218 215 214 217 221 222 224 225 225 225 227 228 226 224 223 224
111 101 98 110 114 122 347 9 49 89 111 135 152 168 182 185 185 186 188 189 190 192 194 196 198 200 203 204 204 204 206 207 209 211 212 212 211 211 212 213 213 214 217 217 216 218 217 215 215 219 222 221 220 221 223 227 229 229 227 224 224 225 226
105 94 82 82 82 78 71 66 72 82 88 103 114 129 165 181 186 188 189 189 190 192 192 193 196 200 203 206 206 208 210 211 211 211 212 213 214 214 216 217 217 218 220 219 219 218 214 214 216 219 220 219 219 221 223 228 231 230 228 225 226 229 231
94 90 79 68 70 81 88 90 87 70 64 82 98 109 138 166 179 187 190 188 187 187 187 190 194 198 202 205 207 210 212 214 215 214 214 215 215 216 219 221 221 221 221 222 223 221 218 217 218 217 217 217 219 222 224 228 230 230 226 223 225 230 232
78 83 84 76 69 71 75 79 85 91 96 102 107 110 124 147 163 176 184 186 186 186 188 190 192 194 200 204 207 210 213 216 218 218 218 218 218 219 221 225 226 223 222 224 225 224 222 220 219 219 217 216 218 221 224 227 230 230 226 224 227 229 230
69 70 79 79 68 56 59 76 87 93 101 111 118 122 126 136 149 159 166 173 183 188 190 190 189 188 193 200 204 207 211 215 218 220 222 222 223 223 223 226 229 227 225 226 225 225 224 223 223 223 220 218 218 219 222 225 229 230 228 228 229 230 231
66 66 69 74 73 60 54 70 88 92 92 98 108 113 118 127 138 139 135 144 177 191 191 189 189 189 190 195 199 202 204 208 214 219 223 224 225 227 226 228 231 230 230 229 226 225 225 225 228 228 224 221 219 220 222 224 226 229 231 232 233 235 235
66 68 67 65 72 71 60 57 67 82 84 78 77 86 101 115 126 134 146 162 179 197 203 195 193 197 200 200 201 201 202 202 205 211 221 226 228 229 229 232 234 234 232 230 229 230 229 227 229 230 226 223 222 223 225 227 228 229 233 235 236 238 239
75 70 67 61 57 64 71 64 54 66 73 66 60 65 80 97 109 117 127 139 144 168 210 216 205 204 207 211 212 209 207 204 202 203 210 222 231 233 233 235 239 239 235 232 232 233 232 229 229 230 228 225 226 227 229 230 229 230 234 237 238 239 241
86 79 71 65 60 57 65 69 60 59 63 62 59 59 65 76 89 102 108 113 122 140 173 207 218 212 206 208 212 213 213 213 212 209 209 212 221 230 235 236 239 241 237 234 234 234 234 232 231 232 232 230 230 232 233 231 230 231 235 238 238 239 240
89 87 79 73 71 67 66 67 63 59 60 63 65 64 66 69 71 83 95 103 114 130 148 168 189 199 203 206 208 212 217 218 217 216 215 214 214 215 225 237 239 239 237 234 232 232 234 233 234 235 235 235 236 236 235 233 231 233 235 237 238 238 239
88 83 78 74 70 70 71 70 67 62 58 60 64 67 70 73 74 78 81 86 97 110 127 152 168 174 182 192 195 198 210 216 215 215 214 213 213 210 214 239 248 238 233 233 232 231 231 232 234 236 236 237 237 238 237 234 233 234 234 234 235 235 237
93 83 74 69 64 61 60 63 70 68 61 55 57 61 65 72 79 83 78 77 85 90 96 117 137 135 122 126 139 147 162 189 204 210 211 210 209 206 207 228 251 244 232 231 232 231 230 230 232 234 236 236 236 236 236 235 236 237 236 235 236 237 237
96 88 77 69 61 55 51 55 66 71 68 61 59 62 69 76 81 81 76 71 76 82 84 89 94 93 92 94 96 104 117 129 146 171 198 211 215 211 209 222 241 246 239 236 236 234 232 232 231 233 235 236 236 235 235 236 238 239 239 238 239 239 239
100 92 84 73 61 56 52 53 62 70 72 69 65 67 74 85 91 87 79 73 71 75 77 75 76 79 83 88 90 97 105 107 111 121 138 175 200 206 207 217 230 238 240 244 246 244 243 240 235 233 234 236 237 237 236 237 239 240 241 241 241 241 241
103 97 91 80 69 59 53 56 63 67 71 71 68 68 71 80 89 90 83 76 70 69 69 67 67 69 71 76 82 86 90 92 92 96 104 118 149 183 201 211 221 231 239 246 250 250 251 253 247 239 236 236 237 239 238 239 240 241 242 243 243 244 243
106 103 95 83 75 61 55 63 67 65 68 73 72 70 70 74 80 85 80 74 71 70 68 64 62 62 61 61 64 64 64 68 71 71 71 78 90 112 168 206 218 232 243 247 249 250 250 252 253 247 241 240 241 242 242 241 241 242 242 243 244 245 245
113 110 101 93 82 63 62 72 73 67 71 78 76 72 71 70 73 79 77 70 66 65 63 60 56 53 53 52 51 51 51 50 53 56 50 44 50 60 56 41 26 294 263 255 254 257 257 254 252 250 248 248 249 248 246 245 244 244 244 244 245 246 246
119 115 115 110 85 70 73 80 79 75 77 80 77 73 72 69 67 70 72 69 64 59 55 52 47 44 44 45 43 44 44 39 37 42 43 33 28 32 36 34 29 24 6 317 284 276 272 265 258 257 257 256 255 255 252 247 243 243 244 245 246 245 245
119 117 114 100 81 75 78 78 78 80 79 76 72 70 70 70 68 66 66 66 61 55 50 46 41 37 36 35 35 36 37 34 30 30 35 35 30 27 28 28 25 22 18 3 332 306 296 284 273 270 269 264 260 258 257 255 251 248 246 245 244 244 244
108 104 99 90 83 79 77 74 73 76 75 70 66 65 65 68 67 63 60 58 52 47 43 38 34 30 28 27 28 29 30 30 26 23 25 28 29 29 25 20 18 16 15 11 353 333 325 311 295 288 284 277 271 265 262 264 268 266 258 248 242 240 241
99 94 89 86 85 81 77 75 72 68 65 61 58 58 60 64 63 56 51 49 47 42 35 28 23 20 16 16 18 21 24 25 22 20 20 17 18 21 14 8 10 15 16 14 2 348 341 334 322 312 303 293 284 276 274 279 283 276 266 261 255 250 248
102 97 91 87 86 83 78 75 69 63 60 57 55 55 55 58 59 52 44 41 38 32 24 19 17 13 9 5 2 8 11 12 13 16 16 13 13 10 3 2 8 14 13 8 2 356 353 349 341 329 319 312 302 294 293 295 292 283 275 273 271 270 267
99 97 93 89 88 85 80 75 70 66 61 58 58 57 53 54 54 48 42 36 29 20 13 11 11 7 6 6 0 359 0 0 3 7 10 14 15 6 2 7 13 14 14 14 10 8 6 2 358 348 337 330 320 313 311 306 297 290 285 281 277 276 276
97 94 92 89 86 83 80 76 72 67 62 58 59 56 51 53 51 44 40 34 23 13 6 7 7 1 360 4 3 0 356 354 357 1 3 8 10 4 3 11 18 22 29 33 28 22 15 7 4 1 355 348 339 330 324 314 302 293 287 283 278 276 277
101 97 93 89 83 79 77 73 65 59 55 49 49 50 47 48 47 42 38 30 18 9 3 2 1 354 352 355 357 357 355 350 351 354 356 1 2 359 358 5 12 20 28 24 17 13 7 1 358 356 352 349 345 339 331 322 314 301 291 285 281 280 282
104 100 95 89 83 75 70 66 58 52 47 39 36 37 39 42 43 39 32 23 15 10 5 1 358 353 351 352 350 349 350 349 347 346 348 354 357 357 1 7 11 13 13 10 8 7 3 359 354 351 348 345 342 338 332 327 325 320 310 296 285 289 298
107 103 96 89 86 80 72 66 56 46 39 34 34 36 37 38 37 31 23 14 9 7 3 1 1 358 355 352 348 344 344 343 344 342 341 345 351 357 7 16 16 12 8 5 3 1 359 356 352 348 344 342 341 340 337 333 327 324 326 323 311 305 307
112 110 105 101 99 94 86 75 60 45 40 38 37 34 28 25 22 18 11 5 2 1 357 356 358 357 355 351 345 343 342 341 341 340 335 337 344 353 0 4 4 2 1 1 359 355 351 349 348 345 341 338 337 336 336 337 335 332 333 333 326 317 309
125 123 118 117 114 107 98 84 66 60 57 47 36 26 18 11 8 6 2 360 0 358 355 354 353 349 348 346 343 341 341 341 342 340 335 334 339 343 345 347 349 351 351 352 352 348 342 338 339 340 340 338 334 332 331 331 335 340 344 340 331 320 312
133 128 124 123 120 112 102 94 87 81 71 55 38 23 12 7 5 2 360 1 2 359 355 355 354 346 340 338 337 336 336 336 338 339 338 335 329 328 333 337 339 341 342 342 343 342 337 330 327 329 334 334 331 331 331 329 331 337 341 340 335 327 322
134 132 129 126 122 117 110 107 103 92 77 61 41 22 14 13 11 3 359 2 3 359 355 355 353 348 344 338 332 329 331 334 335 336 336 333 326 320 322 326 328 329 331 332 334 337 337 334 329 328 329 327 326 328 328 327 329 332 331 328 328 328 329
135 133 133 132 130 126 117 111 106 95 80 62 40 26 24 22 12 2 360 2 0 357 357 357 353 349 348 344 336 329 328 329 330 330 329 329 327 320 312 306 307 314 320 325 327 327 329 332 334 333 330 326 324 324 325 324 327 331 331 327 325 325 328
142 139 141 145 139 126 115 109 104 93 77 60 45 41 40 27 13 6 3 357 351 349 353 357 355 349 346 344 339 332 326 321 321 323 322 323 327 323 304 287 292 303 308 315 319 316 315 320 324 327 328 325 320 317 320 325 329 332 332 329 326 324 325
149 147 148 145 134 123 116 109 100 85 68 61 58 52 41 27 16 10 2 353 346 345 351 357 354 348 345 344 341 335 326 316 313 319 322 323 324 319 301 289 300 310 309 308 307 305 309 316 321 324 328 329 323 318 320 325 328 328 327 326 325 325 324
Height
809 811 811 811 813 814 811 809 810 812 814 816 818 820 823 825 828 830 833 835 837 840 842 843 845 847 848 850 852 853 855 856 857 858 858 859 860 860 861 862 863 863 864 865 866 867 868 869 870 870 871 872 873 874 874 875 876 876 877 877 877 878 878
809 812 812 811 814 816 815 812 810 811 813 815 817 819 821 823 826 828 831 833 835 838 840 842 843 845 847 848 850 852 854 855 856 857 858 858 859 860 861 862 862 863 864 864 865 866 867 868 869 870 871 872 872 873 874 874 875 876 876 877 877 877 878
811 812 813 812 812 814 816 815 812 811 813 815 816 818 819 821 823 825 828 830 833 836 838 840 842 843 845 847 849 851 852 854 855 856 857 858 859 860 861 861 862 863 863 864 865 866 867 867 868 869 870 871 872 872 873 874 874 875 876 876 876 877 877
812 811 811 813 812 811 814 815 815 813 812 814 815 817 817 818 820 822 825 827 830 833 835 838 840 842 844 845 847 849 850 852 854 855 856 857 858 859 860 861 861 862 863 863 864 865 865 867 867 868 869 870 871 871 872 873 873 874 875 875 876 876 877
812 811 811 812 812 812 815 817 817 814 812 813 814 815 816 818 820 821 822 824 826 829 831 834 838 840 842 844 845 847 849 850 852 854 855 857 858 859 859 860 861 861 862 863 863 864 864 865 866 867 868 869 870 870 871 872 872 873 874 874 875 875 876
811 811 812 813 812 813 816 819 818 816 815 814 813 814 815 818 821 821 822 824 825 828 830 833 836 838 841 843 845 846 848 849 851 852 854 855 856 858 858 859 860 861 862 862 863 863 863 864 864 865 866 867 868 869 869 870 871 872 872 873 874 874 875
811 812 813 814 813 813 815 817 817 817 818 816 814 814 815 817 819 821 822 823 825 828 830 833 835 837 839 841 843 845 846 848 849 851 852 853 855 856 857 858 859 860 861 862 862 863 863 863 863 864 865 866 866 867 868 869 869 870 871 872 872 873 873
814 814 815 816 815 814 814 815 817 817 817 817 815 814 815 816 818 820 822 824 825 826 828 830 832 835 838 840 842 843 844 846 848 849 851 852 853 854 856 857 858 859 860 861 862 862 862 863 863 863 863 864 865 865 866 867 868 869 869 870 871 871 872
815 815 815 816 816 815 815 815 818 818 818 817 816 815 816 817 819 821 823 826 827 827 828 830 831 833 835 837 839 841 843 844 846 848 850 851 852 853 854 856 857 858 859 859 861 861 861 862 862 862 863 863 863 864 864 865 866 867 868 868 869 870 870
816 816 816 816 817 818 818 818 819 819 819 818 817 816 817 817 820 822 824 828 831 831 831 831 832 833 834 835 837 839 840 842 843 846 848 849 851 852 853 854 856 857 857 858 859 859 860 861 861 861 862 862 862 862 863 863 864 866 866 867 868 868 869
820 818 818 818 819 819 821 822 822 820 820 819 818 818 818 818 820 822 824 827 830 832 834 833 832 833 834 834 835 836 838 839 841 843 846 848 850 851 852 853 854 855 856 856 857 857 858 859 859 860 860 860 861 861 861 862 863 864 864 865 866 867 868
824 821 821 821 820 821 822 824 825 822 820 820 820 820 820 820 821 823 824 827 829 832 835 835 833 832 832 834 835 836 837 838 839 840 842 845 848 850 851 852 853 854 854 855 855 856 856 857 858 858 858 859 859 860 860 861 861 862 863 864 865 865 866
824 823 824 824 823 824 824 825 826 824 821 820 821 822 822 822 822 823 825 827 830 832 834 837 836 833 832 832 833 834 836 837 838 839 840 842 844 846 849 851 852 852 853 853 854 854 855 855 856 857 857 857 858 858 858 859 859 860 860 861 862 863 864
825 825 826 826 826 827 826 826 826 825 823 823 823 823 823 823 823 824 826 827 829 830 832 835 837 836 835 834 833 834 834 835 837 838 839 840 841 843 846 848 851 851 851 851 852 852 852 853 854 855 855 856 856 856 856 857 857 857 858 859 859 860 861
827 827 828 828 828 828 828 828 827 826 826 825 825 826 825 825 826 827 828 828 829 830 831 832 834 835 836 836 835 834 834 835 836 837 838 839 839 840 843 846 849 850 850 849 849 850 850 850 851 852 852 853 853 854 854 854 854 854 855 855 856 857 858
829 830 830 829 829 829 829 829 828 828 829 828 828 828 827 828 829 830 831 831 831 831 832 833 834 835 835 835 835 834 834 835 836 836 836 837 837 837 840 844 848 849 848 848 848 848 848 849 849 849 849 849 850 850 851 851 851 851 852 852 853 853 854
831 832 833 832 831 831 831 831 830 831 832 832 832 831 831 832 833 833 833 834 834 834 834 835 836 836 835 835 835 835 835 835 835 834 834 834 835 835 837 842 846 847 847 846 846 847 846 847 847 846 846 846 847 847 847 848 848 848 849 849 850 850 851
833 834 834 834 834 833 833 833 833 833 835 836 835 835 836 837 838 838 838 839 838 836 835 836 836 836 836 836 836 836 836 836 835 834 834 834 835 836 837 840 844 845 844 844 844 845 844 844 844 843 844 844 844 845 845 845 845 846 846 847 847 848 848
834 835 835 836 836 836 836 836 835 836 836 836 837 837 838 839 840 841 841 841 840 838 837 838 838 838 839 838 838 837 837 836 835 835 835 835 836 837 838 839 840 841 841 841 842 842 842 842 842 841 841 841 842 842 843 843 843 843 843 844 845 846 846
834 835 836 837 837 838 838 837 837 838 837 837 838 838 839 840 840 842 842 842 842 841 840 840 839 840 840 839 838 837 837 836 835 835 836 836 836 837 837 838 837 837 838 838 839 839 839 839 839 839 840 840 840 840 840 840 841 841 841 841 842 844 845
835 835 837 839 839 839 840 839 839 840 839 840 840 839 840 840 841 842 843 843 843 842 841 841 840 840 840 839 838 838 837 837 836 835 836 837 836 835 835 836 835 835 836 836 836 836 836 836 837 837 837 838 838 838 837 837 837 838 838 839 840 842 842
835 835 837 839 840 841 841 841 842 842 842 842 842 841 841 841 842 842 843 843 843 842 842 841 841 840 840 839 838 838 838 837 836 836 836 838 838 835 834 834 834 834 834 834 834 834 834 834 834 834 834 835 836 835 835 834 834 834 835 837 839 840 840
834 836 837 839 841 842 842 843 843 843 843 844 844 844 843 843 843 843 843 844 844 843 843 842 841 841 841 840 839 839 838 838 837 837 837 838 839 837 835 833 833 833 832 832 832 832 832 832 832 832 832 832 832 832 831 831 832 833 833 834 835 836 837
835 836 837 839 841 843 844 844 844 844 845 845 846 846 846 845 845 844 844 845 845 845 844 843 843 843 842 842 841 840 839 839 838 838 837 837 838 838 835 833 832 832 831 831 830 830 830 830 830 830 830 830 830 829 829 829 830 831 831 832 832 832 832
835 837 838 839 841 843 844 845 845 846 846 846 847 847 847 846 846 845 845 845 845 846 846 845 845 844 843 843 842 841 840 839 838 838 837 836 836 835 834 833 831 831 830 830 830 829 829 829 828 828 828 828 828 827 827 828 828 828 829 829 829 829 829
835 837 838 839 841 843 844 845 846 847 847 848 848 848 848 847 847 846 846 846 845 845 845 845 845 844 843 843 842 841 840 839 838 837 836 836 835 834 834 832 831 830 829 828 829 828 828 828 827 826 826 826 826 825 826 826 826 826 826 826 826 827 827
835 837 839 840 842 843 845 846 847 848 849 849 849 849 849 848 848 847 847 846 846 846 845 845 845 844 843 842 841 841 840 838 838 837 836 835 835 834 833 832 831 829 828 827 828 828 828 827 827 826 825 824 824 824 824 824 823 823 823 823 823 824 824
836 838 839 841 842 844 846 847 848 848 849 850 850 850 850 849 849 849 848 848 847 847 846 845 844 843 843 842 841 840 839 838 837 836 835 834 833 832 832 831 830 829 828 827 827 827 827 827 826 825 824 824 823 823 823 823 822 821 821 821 821 821 821
837 838 840 842 844 845 845 846 847 847 848 849 850 850 850 850 850 849 849 849 848 848 847 845 844 843 842 841 840 839 838 837 836 835 834 833 832 831 831 831 830 830 828 828 827 827 826 826 825 824 824 823 822 822 822 821 820 819 819 819 819 819 818
837 839 841 842 844 845 845 846 846 846 848 848 849 849 849 849 849 849 849 849 848 847 846 845 844 843 842 841 840 838 837 836 835 834 833 833 832 832 831 831 831 830 829 828 827 827 827 826 825 824 823 822 821 821 821 820 819 819 818 817 817 817 817
838 840 841 842 844 845 845 846 847 847 848 848 848 849 848 848 848 848 848 848 847 846 845 844 844 842 841 840 839 838 837 835 834 834 833 832 832 832 831 831 830 830 829 829 828 828 827 826 826 825 823 822 821 819 819 819 818 818 817 816 816 816 815
839 840 841 843 845 845 846 847 848 849 849 849 849 848 848 848 847 847 847 847 846 845 844 843 842 841 841 840 838 837 837 835 834 833 832 832 831 831 830 830 829 829 829 828 828 828 827 827 826 826 825 823 822 820 819 818 817 817 816 815 815 814 813
840 841 843 844 845 846 848 848 849 850 850 850 850 849 848 848 847 847 847 846 845 844 843 842 841 840 840 839 838 837 836 835 834 833 832 831 831 830 829 829 828 828 828 827 827 827 827 827 826 826 825 824 823 821 820 818 817 816 815 814 813 812 812
840 841 843 845 846 847 848 848 849 850 850 851 851 850 849 849 848 848 847 846 845 844 843 842 841 840 839 838 837 837 835 834 834 833 832 831 830 830 829 828 828 828 827 827 827 826 826 826 825 825 824 823 822 820 819 817 816 815 815 813 812 811 810
840 842 843 845 846 847 848 849 850 851 851 851 851 850 850 850 849 849 848 847 846 844 843 842 841 839 838 837 837 836 835 835 834 833 832 831 830 829 829 828 828 828 827 827 827 826 825 824 824 823 823 822 821 820 818 816 815 814 814 813 812 811 810
840 842 843 845 846 847 848 849 850 851 852 852 851 851 851 850 850 849 848 847 846 845 844 843 841 839 838 837 836 835 834 834 834 833 832 831 829 828 828 827 827 827 827 826 825 825 825 824 823 822 821 819 818 818 817 815 814 813 813 812 812 811 809
840 842 843 845 846 847 848 850 850 851 852 852 852 851 851 851 850 850 849 848 847 845 844 843 842 840 839 837 836 835 833 833 832 832 831 830 829 828 827 826 826 826 826 825 824 824 823 823 822 821 820 818 816 815 815 814 813 812 812 811 810 810 808
839 841 843 844 845 847 848 849 850 851 851 851 852 851 851 851 851 850 849 848 847 846 845 843 842 841 839 837 836 834 833 832 831 830 829 829 827 827 826 825 825 824 824 824 823 823 822 821 821 820 819 818 816 814 813 812 812 811 811 810 809 808 807